TimeEET,TemperatureF,Dew PointF,Humidity,Sea Level PressureIn,VisibilityMPH,Wind Direction,Wind SpeedMPH,Gust SpeedMPH,PrecipitationIn,Events,Conditions,WindDirDegrees,DateUTC
1:50 AM,19.4,12.2,74,30.39,-9999.0,ESE,4.6,-,N/A,,Clear,110,2013-01-02 23:50:00
2:00 AM,19,15,75,,6,ESE,4.6,,,,,110,2013-01-03 00:00:00
2:50 AM,17.6,15.8,93,30.39,-9999.0,Calm,Calm,-,N/A,,Clear,0,2013-01-03 00:50:00
3:50 AM,15.8,14.0,93,30.39,-9999.0,Calm,Calm,-,N/A,,Clear,0,2013-01-03 01:50:00
4:50 AM,15.8,14.0,93,30.39,-9999.0,Calm,Calm,-,N/A,,Clear,0,2013-01-03 02:50:00
5:50 AM,14.0,12.2,93,30.39,-9999.0,Calm,Calm,-,N/A,,Clear,0,2013-01-03 03:50:00
6:50 AM,14.0,12.2,93,30.42,-9999.0,Calm,Calm,-,N/A,,Clear,0,2013-01-03 04:50:00
7:50 AM,17.6,15.8,93,30.42,-9999.0,Calm,Calm,-,N/A,,Clear,0,2013-01-03 05:50:00
8:00 AM,17,17,99,,6,Calm,Calm,,,,,,2013-01-03 06:00:00
9:50 AM,28.4,17.6,64,30.42,-9999.0,East,3.5,-,N/A,,Clear,100,2013-01-03 07:50:00
10:50 AM,32.0,19.4,60,30.39,-9999.0,ESE,3.5,-,N/A,,Clear,120,2013-01-03 08:50:00
11:50 AM,35.6,15.8,44,30.36,-9999.0,Variable,2.3,-,N/A,,Clear,0,2013-01-03 09:50:00
12:50 PM,37.4,15.8,41,30.33,-9999.0,Variable,2.3,-,N/A,,Clear,0,2013-01-03 10:50:00
1:50 PM,41.0,15.8,36,30.33,-9999.0,Calm,Calm,-,N/A,,Clear,0,2013-01-03 11:50:00
2:00 PM,40,12,19,,6,Calm,Calm,,,,,,2013-01-03 12:00:00
2:50 PM,39.2,15.8,39,30.33,-9999.0,Variable,1.2,-,N/A,,Clear,0,2013-01-03 12:50:00
3:50 PM,35.6,17.6,48,30.33,-9999.0,WSW,1.2,-,N/A,,Clear,250,2013-01-03 13:50:00
4:50 PM,30.2,19.4,64,30.33,-9999.0,Calm,Calm,-,N/A,,Clear,0,2013-01-03 14:50:00
5:50 PM,26.6,19.4,74,30.33,-9999.0,Calm,Calm,-,N/A,,Clear,0,2013-01-03 15:50:00
6:50 PM,24.8,21.2,86,30.33,-9999.0,Calm,Calm,-,N/A,,Clear,0,2013-01-03 16:50:00
7:50 PM,23.0,19.4,86,30.33,-9999.0,Calm,Calm,-,N/A,,Clear,0,2013-01-03 17:50:00
8:00 PM,22,20,89,,12,Calm,Calm,,,,,,2013-01-03 18:00:00
8:50 PM,21.2,17.6,86,30.30,-9999.0,Calm,Calm,-,N/A,,Clear,0,2013-01-03 18:50:00
9:50 PM,21.2,17.6,86,30.33,-9999.0,Calm,Calm,-,N/A,,Clear,0,2013-01-03 19:50:00
10:50 PM,19.4,17.6,93,30.30,-9999.0,Calm,Calm,-,N/A,,Clear,0,2013-01-03 20:50:00
11:50 PM,19.4,17.6,93,30.30,-9999.0,Calm,Calm,-,N/A,,Clear,0,2013-01-03 21:50:00